[[{"header":{"parameterUnit":"m.s-1","parameterCategory":1,"la1":30.2991,"la2":30.254,"lo1":-89.0895,"lo2":-89.0444,"dy":0.0017,"dx":0.0017,"nx":28,"ny":28,"refTime":"2024-06-22T21:00:00:Z","depth":0,"parameterNumber":2,"parameterNumberName":"U-component_of_WINDS"},"data":[0,0,0,0,0,0,0,0,0,0,0,0,0,0,0,0,0,0,0,0,0,0,0,0,0,0,0,0,0,0,0,0,0,0,0,0,0,0,0,0,0,0,0,0,0,0,0,0,0,0,0,0,0,0,0,0,0,0,1.5809,1.5811,0,1.5941,1.5942,1.5944,1.5972,1.5971,1.597,1.5969,1.6109,1.6114,1.6118,0,0,0,0,0,0,0,0,0,0,0,0,0,1.5586,1.559,1.5809,1.5811,1.5812,1.594,1.5942,1.5944,1.5972,1.5971,1.597,1.5969,1.6108,1.6113,1.6119,0,0,0,0,0,0,0,0,0,0,0,0,0,1.5697,1.5591,1.5809,1.5842,1.5846,1.594,1.5942,1.5945,1.5972,1.5971,1.5969,1.5968,1.6106,1.6113,1.6119,1.6192,0,0,1.6141,1.6144,0,0,0,0,0,0,0,0,1.569,1.5705,1.5835,1.584,1.5844,1.5938,1.5915,1.6028,1.5973,1.5925,1.5969,1.5967,1.6054,1.6065,1.6093,1.6198,1.6204,1.6141,1.6146,1.6149,1.6151,0,0,0,0,0,0,0,1.5683,1.5699,1.5861,1.5837,1.5843,1.5851,1.5865,1.5936,1.5996,1.5929,1.5931,1.5946,1.6056,1.6086,1.6097,1.6207,1.6141,1.6147,1.6152,1.6154,1.6376,1.6377,0,0,0,0,0,0,1.5669,1.5693,1.5857,1.5865,1.5762,1.5856,1.5872,1.591,1.5995,1.6007,1.5947,1.5947,1.6075,1.6088,1.6102,1.619,1.6149,1.6155,1.6159,1.6374,1.6376,1.6378,0,0,0,0,0,0,1.5664,1.5683,1.5852,1.578,1.5802,1.5862,1.5904,1.5913,1.5943,1.6009,1.602,1.5966,1.6074,1.6092,1.6168,1.6195,1.6158,1.6165,1.6372,1.6375,1.6377,1.6368,0,0,0,0,0,0,1.5657,1.5681,1.5708,1.578,1.5805,1.5915,1.5906,1.5917,1.5954,1.5955,1.603,1.6041,1.6075,1.6158,1.6175,1.6204,1.617,1.637,1.6373,1.6376,1.6367,1.637,1.6374,0,0,0,0,0,1.5649,1.5703,1.571,1.5729,1.5841,1.5917,1.5931,1.5967,1.5957,1.5985,1.6027,1.6039,1.619,1.6165,1.6185,1.6217,1.6368,1.6372,1.6376,1.6365,1.637,1.6373,0,0,0,0,0,0,1.5635,1.5713,1.5721,1.5799,1.5851,1.5921,1.5958,1.5971,1.6028,1.6027,1.607,1.6087,1.616,1.6197,1.6168,1.629,1.6279,1.6287,1.6263,1.6268,1.6272,1.6261,1.6176,0,0,0,0,0,1.564,1.5694,1.576,1.5822,1.5847,1.5898,1.5933,1.5955,1.6011,1.6034,1.6082,1.6137,1.6196,1.6235,1.6293,1.6372,1.6388,1.6404,1.6407,1.641,1.6416,1.6458,1.6465,1.639,1.639,1.639,0,0,1.5653,1.5702,1.5734,1.5821,1.5863,1.5918,1.5916,1.5976,1.6017,1.6044,1.6117,1.6154,1.6219,1.6296,1.6332,1.6328,1.644,1.6415,1.6416,1.6421,1.6463,1.647,1.6476,1.6393,1.6392,1.6392,0,0,1.5704,1.5747,1.5803,1.5845,1.5908,1.5941,1.5954,1.6023,1.6047,1.6122,1.6141,1.6193,1.6295,1.6339,1.6375,1.644,1.6453,1.6458,1.6476,1.6517,1.6523,1.6529,1.655,1.6558,1.6464,1.6464,1.6464,0,1.5712,1.5795,1.583,1.5887,1.5924,1.5948,1.6005,1.6044,1.6125,1.615,1.6144,1.6271,1.6316,1.6403,1.6418,1.6447,1.6464,1.645,1.6519,1.6525,1.6531,1.6552,1.656,1.6464,1.6464,1.6464,1.6464,0,1.5801,1.5858,1.5896,1.5969,1.6011,1.6068,1.6112,1.615,1.6169,1.6202,1.6277,1.6332,1.6401,1.6424,1.6444,1.6513,1.6508,1.651,1.6499,1.6537,1.6558,1.6566,1.6465,1.6465,1.6464,1.6464,0,0,1.5847,1.5938,1.5951,1.5983,1.6054,1.61,1.6158,1.6223,1.6254,1.6308,1.6357,1.6442,1.6444,1.6484,1.651,1.6546,1.6591,1.6543,1.6545,1.6549,1.6669,1.6665,1.6674,1.66,1.6602,1.6604,1.6663,0,1.5905,1.6006,1.6039,1.6124,1.6176,1.6199,1.6249,1.6298,1.6331,1.6382,1.6419,1.6477,1.6476,1.65,1.6537,1.6578,1.6616,1.6574,1.6647,1.6649,1.6628,1.6685,1.6683,1.6736,1.6671,1.6673,1.6674,0,1.5986,1.6039,1.6128,1.619,1.6214,1.6258,1.6319,1.6367,1.6423,1.6445,1.6488,1.651,1.6572,1.6558,1.6643,1.6613,1.6645,1.667,1.6673,1.668,1.6663,1.6693,1.6754,1.6761,1.6687,1.6686,1.6685,0,1.6008,1.6102,1.6167,1.6195,1.6269,1.6299,1.6332,1.6387,1.6424,1.6478,1.6502,1.6563,1.6597,1.6644,1.6682,1.6669,1.6763,1.6753,1.6783,1.6782,1.6801,1.6799,1.6867,1.6824,1.6824,1.6823,1.6823,0,1.6069,1.6122,1.6177,1.6217,1.6277,1.6314,1.6374,1.6408,1.6456,1.6503,1.6528,1.6572,1.662,1.6671,1.6702,1.6766,1.6782,1.6801,1.6808,1.6798,1.6795,1.6819,1.6815,1.6826,1.6825,1.6825,1.6824,0,1.6103,1.6142,1.6214,1.6278,1.6295,1.6337,1.6392,1.6432,1.6465,1.6525,1.6541,1.6594,1.6654,1.6697,1.6776,1.6796,1.6865,1.6873,1.6845,1.6849,1.6875,1.6872,1.6959,1.6972,1.6922,1.6922,1.6922,0,1.6138,1.6179,1.6247,1.6279,1.6311,1.6363,1.64,1.6438,1.6475,1.6541,1.6573,1.6635,1.6686,1.6782,1.6828,1.6888,1.6897,1.6923,1.6906,1.6894,1.6895,1.6892,1.6895,1.6926,1.6926,1.6926,1.6927,0,1.6196,1.6212,1.6263,1.632,1.6362,1.6409,1.6457,1.6483,1.653,1.657,1.6631,1.6671,1.6749,1.681,1.6874,1.691,1.6926,1.6931,1.6941,1.6931,1.6912,1.6921,1.6851,1.6929,1.6929,1.6929,1.6929,1.6929,1.623,1.6267,1.6319,1.6375,1.6414,1.6457,1.6497,1.6534,1.6585,1.6651,1.6671,1.6734,1.6788,1.6875,1.6911,1.6962,1.696,1.6975,1.6978,1.6981,1.6979,1.6905,1.6974,1.6974,1.6974,1.6974,1.6974,0,1.6287,1.6322,1.6372,1.6436,1.648,1.6489,1.6542,1.6578,1.6632,1.6681,1.673,1.68,1.6858,1.6908,1.6969,1.7,1.7008,1.7014,1.7012,1.7019,1.6978,1.6963,1.7006,1.7006,1.7006,1.7006,1.7006,1.7006,1.6322,1.6384,1.6407,1.6488,1.6523,1.6583,1.6612,1.6652,1.6691,1.6766,1.6814,1.6846,1.6895,1.6959,1.7013,1.7027,1.7047,1.7051,1.7066,1.7026,1.7023,1.7019,1.7004,1.7055,1.7055,1.7102,1.7103,1.7103]},{"header":{"parameterUnit":"m.s-1","parameterCategory":1,"la1":30.2991,"la2":30.254,"lo1":-89.0895,"lo2":-89.0444,"dy":0.0017,"dx":0.0017,"nx":28,"ny":28,"refTime":"2024-06-22T21:00:00:Z","depth":0,"parameterNumber":3,"parameterNumberName":"V-component_of_WINDS"},"data":[0,0,0,0,0,0,0,0,0,0,0,0,0,0,0,0,0,0,0,0,0,0,0,0,0,0,0,0,0,0,0,0,0,0,0,0,0,0,0,0,0,0,0,0,0,0,0,0,0,0,0,0,0,0,0,0,0,0,3.6918,3.6918,0,3.6946,3.6947,3.6947,3.6901,3.6899,3.6898,3.6896,3.6922,3.6924,3.6926,0,0,0,0,0,0,0,0,0,0,0,0,0,3.682,3.6822,3.6918,3.6918,3.6919,3.6946,3.6947,3.6947,3.6901,3.6899,3.6897,3.6896,3.6922,3.6924,3.6927,0,0,0,0,0,0,0,0,0,0,0,0,0,3.6857,3.6823,3.6918,3.6899,3.6898,3.6946,3.6947,3.6947,3.6902,3.6899,3.6897,3.6895,3.6921,3.6924,3.6927,3.6994,0,0,3.6937,3.6938,0,0,0,0,0,0,0,0,3.6855,3.6861,3.6902,3.6901,3.6899,3.6918,3.6922,3.6963,3.6902,3.69,3.6896,3.6894,3.6922,3.6925,3.6936,3.6995,3.6996,3.6937,3.6939,3.694,3.6941,0,0,0,0,0,0,0,3.6853,3.6859,3.6929,3.6902,3.6901,3.6888,3.6891,3.6929,3.6924,3.69,3.6897,3.6901,3.6921,3.6933,3.6936,3.6997,3.6937,3.694,3.6942,3.6943,3.7112,3.7114,0,0,0,0,0,0,3.6853,3.6857,3.6928,3.693,3.6871,3.6892,3.6895,3.6914,3.6923,3.6923,3.6903,3.6899,3.6928,3.6932,3.6937,3.7017,3.694,3.6943,3.6945,3.711,3.7113,3.7115,0,0,0,0,0,0,3.6851,3.686,3.6927,3.6893,3.69,3.6896,3.6918,3.6916,3.6927,3.6926,3.6924,3.6916,3.6927,3.6932,3.698,3.7017,3.6945,3.6948,3.7107,3.711,3.7114,3.7176,0,0,0,0,0,0,3.6848,3.6859,3.6886,3.6894,3.6902,3.6972,3.692,3.6918,3.6933,3.6928,3.6937,3.6937,3.6925,3.6976,3.6983,3.702,3.695,3.7103,3.7108,3.7113,3.7171,3.7182,3.7191,0,0,0,0,0,3.6845,3.6901,3.6887,3.6896,3.6936,3.6974,3.6979,3.6965,3.6937,3.6963,3.6961,3.6936,3.7011,3.6981,3.6989,3.7027,3.7101,3.7107,3.7112,3.7167,3.718,3.7191,0,0,0,0,0,0,3.6897,3.6902,3.6887,3.6948,3.6961,3.6966,3.6999,3.6979,3.7,3.6994,3.6975,3.6978,3.703,3.7033,3.6999,3.7092,3.7051,3.7059,3.7089,3.7102,3.7112,3.7111,3.6953,0,0,0,0,0,3.6916,3.6947,3.6949,3.7003,3.701,3.7003,3.7019,3.7008,3.702,3.7025,3.7027,3.704,3.7066,3.7083,3.7107,3.717,3.7172,3.72,3.721,3.7218,3.7226,3.726,3.7273,3.7134,3.7134,3.7134,0,0,3.6955,3.6961,3.6982,3.7014,3.7023,3.7055,3.7008,3.7044,3.7068,3.703,3.7077,3.7078,3.709,3.7147,3.7171,3.7151,3.7264,3.7226,3.7232,3.7235,3.7267,3.728,3.7292,3.7138,3.7137,3.7137,0,0,3.7042,3.705,3.7096,3.7106,3.712,3.7115,3.7126,3.7134,3.7134,3.718,3.7152,3.7179,3.7224,3.7234,3.7245,3.7335,3.7313,3.7343,3.7396,3.7429,3.744,3.745,3.7483,3.7495,3.735,3.735,3.735,0,3.7089,3.7138,3.7122,3.7161,3.7175,3.7142,3.7188,3.7198,3.7218,3.7229,3.7205,3.7261,3.7267,3.7325,3.7347,3.7356,3.7368,3.7343,3.744,3.745,3.7458,3.749,3.7502,3.7354,3.7353,3.7353,3.7352,0,3.7195,3.7229,3.7264,3.7286,3.7304,3.7346,3.7335,3.7355,3.7341,3.7338,3.7384,3.739,3.7414,3.7427,3.7413,3.7483,3.747,3.7443,3.7402,3.7476,3.7505,3.7517,3.7359,3.7358,3.7357,3.7356,0,0,3.7319,3.7331,3.7344,3.7354,3.7366,3.7392,3.7431,3.7456,3.7473,3.7488,3.7521,3.7559,3.7535,3.7547,3.7534,3.7563,3.7635,3.7532,3.7532,3.7553,3.7713,3.7735,3.7749,3.7619,3.7621,3.7623,3.7712,0,3.7408,3.7478,3.7464,3.7532,3.7563,3.7532,3.7566,3.7576,3.7574,3.7599,3.7595,3.7623,3.7588,3.7596,3.7623,3.762,3.7667,3.7613,3.765,3.7651,3.765,3.7764,3.7787,3.7871,3.7724,3.7726,3.7727,0,3.7522,3.7542,3.7614,3.7621,3.7633,3.7664,3.7686,3.771,3.7721,3.7717,3.773,3.7711,3.7749,3.7705,3.7758,3.7721,3.7735,3.7736,3.7738,3.7743,3.7695,3.7773,3.7898,3.7911,3.7745,3.7743,3.7742,0,3.7607,3.7651,3.77,3.7709,3.7718,3.7741,3.7745,3.7754,3.777,3.7787,3.7797,3.7819,3.7831,3.7848,3.7835,3.7804,3.7889,3.7844,3.7887,3.7888,3.7909,3.7908,3.8039,3.7914,3.7914,3.7914,3.7913,0,3.7709,3.7755,3.7739,3.7769,3.7819,3.7801,3.785,3.785,3.7858,3.7887,3.7859,3.7887,3.7867,3.7892,3.7882,3.7927,3.7932,3.793,3.7927,3.7934,3.7935,3.7944,3.7939,3.7917,3.7916,3.7916,3.7915,0,3.7815,3.7806,3.7857,3.7861,3.7863,3.7899,3.7902,3.793,3.7924,3.7961,3.7969,3.796,3.7989,3.7977,3.8006,3.7999,3.8058,3.8046,3.8055,3.8053,3.8097,3.8094,3.8241,3.826,3.8121,3.8122,3.8123,0,3.7882,3.7916,3.7924,3.7942,3.7949,3.7978,3.7993,3.7976,3.7994,3.8008,3.8034,3.806,3.808,3.8127,3.8123,3.8145,3.8135,3.8185,3.8138,3.8144,3.8138,3.8137,3.814,3.8195,3.8196,3.8198,3.8199,0,3.8002,3.7996,3.802,3.8044,3.8064,3.808,3.8095,3.8111,3.8094,3.8114,3.8144,3.816,3.819,3.8217,3.8236,3.8239,3.8217,3.8213,3.8225,3.8233,3.8238,3.8237,3.8083,3.821,3.8209,3.8208,3.8208,3.8207,3.8091,3.8121,3.8131,3.8159,3.8168,3.8182,3.8208,3.8206,3.823,3.8255,3.8242,3.8276,3.8285,3.8309,3.8315,3.8341,3.8321,3.8338,3.8342,3.8347,3.8354,3.8232,3.8344,3.8344,3.8343,3.8343,3.8343,0,3.8212,3.8217,3.8242,3.8264,3.8286,3.8262,3.8276,3.8296,3.8327,3.8337,3.8358,3.8391,3.8416,3.8413,3.8436,3.8458,3.8448,3.8464,3.8464,3.8465,3.8369,3.8358,3.8472,3.8472,3.8472,3.8472,3.8472,3.8472,3.8278,3.8326,3.8321,3.8373,3.8376,3.8411,3.8421,3.8433,3.8441,3.848,3.8501,3.8499,3.8504,3.8527,3.8549,3.8547,3.8558,3.8579,3.8573,3.8484,3.8472,3.846,3.8449,3.8581,3.8581,3.8667,3.8668,3.8669]}]]